Location: Ford County Road and Bridge Department
(37.7686°N, 99.9762°W)
Time: 21:59:21
(UTC+00:00)

USA 215 - Pass Details

Date: 18 January 2020
Orbit: 1101 x 1107 km, 123.0° (Epoch: 06 February)

Event Time Altitude Azimuth Distance (km) Brightness Sun altitude
Rises 11:03:07 0° 112° (ESE) 3,914 7.1 -33.3°
Reaches altitude 10° 11:05:41 10° 107° (ESE) 2,957 6.3 -32.8°
Maximum altitude 11:11:53 48° 36° (NE) 1,409 3.9 -31.5°
Enters shadow 11:13:25 41° 359° (N) 1,552 3.9 -31.2°
